GFSCGP_925_rhum_141.txt.gz
RH
77 60 69 58 48 51 52 45 48 44 35 33 32 28 34 31 32 35 37 38 43 51 50 52 54 53 55 54 54 54 54 54 54 56 70 84 83 82 82 78 62 55 54 52
90 70 51 48 47 47 46 52 55 46 37 33 39 32 27 30 30 31 33 35 38 40 48 55 57 58 57 53 55 56 55 56 56 54 60 76 81 82 83 74 59 50 46 41
98 49 47 44 43 46 48 48 58 51 40 33 33 36 31 31 28 27 28 28 28 36 42 52 61 60 57 58 56 56 56 59 59 56 58 72 84 84 84 73 64 53 44 35
78 42 40 45 47 44 45 43 48 53 50 61 34 51 31 33 34 33 30 31 30 29 30 44 56 63 59 55 56 58 60 62 62 59 56 66 82 85 82 79 68 52 46 36
70 51 46 47 47 42 41 46 48 40 46 44 36 55 31 30 29 30 31 33 32 31 35 45 59 54 55 55 56 59 63 64 65 62 57 57 70 76 76 73 68 53 50 44
66 53 54 50 48 42 51 42 44 49 54 59 36 42 27 34 28 40 45 34 38 48 44 52 61 62 58 58 59 63 64 65 67 66 61 55 58 65 66 62 61 54 51 45
64 59 60 54 46 41 42 53 75 65 67 66 65 40 31 32 46 42 51 60 64 61 63 63 59 65 66 63 63 64 66 66 68 68 65 58 54 54 60 59 57 54 49 42
81 75 64 62 52 51 51 44 70 52 59 63 57 51 30 42 54 59 58 60 60 62 66 66 63 63 62 62 62 63 65 65 67 68 67 64 56 52 50 54 57 55 51 42
75 76 59 56 56 46 46 66 49 66 68 71 71 45 47 51 51 55 57 55 56 56 61 58 60 62 60 60 59 61 64 64 65 67 68 68 65 57 52 49 48 49 47 38
57 77 60 52 48 45 41 52 62 79 60 36 71 60 64 64 60 57 59 55 53 53 55 60 58 54 48 47 52 60 62 62 63 67 68 69 69 66 61 56 53 50 47 41
53 59 67 48 58 51 51 55 63 63 68 70 64 52 55 64 62 68 62 53 47 46 53 51 38 34 34 34 37 46 59 64 62 63 66 68 66 66 67 66 62 59 56 50
53 64 75 54 59 57 58 46 54 54 44 70 59 51 44 57 60 64 54 49 36 42 41 40 39 38 37 37 37 38 40 45 53 60 62 62 63 65 67 66 65 65 63 58
54 64 73 50 44 50 58 57 51 59 63 61 57 34 49 57 57 51 45 37 34 37 38 43 42 42 40 40 39 41 42 43 45 47 51 54 57 61 63 65 65 66 66 64
54 68 48 50 40 51 56 59 57 54 78 58 56 41 54 60 54 43 37 33 35 39 42 45 47 47 43 42 41 41 43 46 48 49 48 47 47 48 50 53 56 60 62 66
53 67 60 51 50 57 54 53 64 57 45 45 34 48 52 62 61 44 38 36 38 43 42 45 51 52 47 44 45 47 48 47 46 44 43 44 45 47 49 52 57 61 63 64
57 64 48 54 44 44 44 51 66 65 54 53 51 52 42 54 44 38 39 38 39 44 42 46 50 50 50 49 49 49 46 44 45 44 44 45 46 46 46 48 51 53 56 62
57 62 62 46 56 41 34 37 59 69 64 57 62 50 47 48 42 42 43 42 46 46 47 51 54 53 50 49 50 50 48 47 46 47 48 50 53 54 53 53 51 50 51 54
64 63 73 76 35 38 27 36 40 62 61 62 49 45 44 44 47 48 48 50 51 51 52 56 54 52 52 52 50 49 48 48 48 49 50 52 53 54 54 53 52 53 56 59
61 65 76 63 49 30 32 39 45 45 28 56 58 49 46 56 47 47 51 52 55 58 56 55 53 54 52 52 51 49 47 48 47 48 48 50 52 52 54 54 55 54 56 56
63 62 49 71 32 18 18 31 36 30 33 44 52 51 55 53 54 49 52 57 60 57 57 55 56 54 51 49 49 45 42 38 37 38 39 41 46 52 53 52 53 55 59 60
69 71 67 71 61 46 31 34 36 21 16 43 49 51 58 49 46 46 54 60 57 57 56 56 52 50 48 43 40 39 38 34 35 34 32 32 33 38 40 47 49 52 54 58
59 72 78 73 63 34 40 38 33 28 46 46 49 50 51 45 56 60 63 62 56 55 53 50 48 44 41 39 37 38 34 31 30 30 29 29 30 31 34 42 45 50 54 58
50 44 50 52 45 33 43 32 37 49 49 44 45 44 47 53 57 64 63 57 56 53 48 46 46 42 31 30 33 36 32 30 31 32 32 32 32 32 32 42 52 62 62 66
53 57 56 53 43 52 48 45 43 46 43 46 46 49 50 52 63 62 60 59 54 48 46 44 39 36 33 30 31 31 29 32 35 38 39 39 42 46 48 55 64 70 73 75
44 57 56 58 49 50 50 52 47 46 50 52 52 53 54 62 62 58 58 53 50 48 45 41 38 37 32 25 22 27 29 33 38 46 50 54 59 62 64 66 73 78 74 73
57 50 48 43 38 41 39 46 52 54 53 56 56 59 57 55 59 52 54 49 48 47 44 37 36 34 29 25 20 20 23 36 48 57 63 65 70 71 76 81 85 80 80 78

GFSCGP_925_rhum_144.txt.gz
RH
91 100 79 56 57 52 51 46 52 44 38 35 34 32 35 35 37 43 44 42 47 55 52 53 54 54 55 55 54 53 52 54 56 54 60 72 78 82 80 78 64 53 49 48
95 89 52 48 51 46 44 47 56 44 41 36 36 32 31 34 34 36 39 41 41 42 51 57 56 57 56 55 54 54 55 56 57 56 57 65 75 80 79 78 66 55 47 42
98 87 60 46 50 47 47 46 56 51 38 37 36 40 33 31 29 28 32 32 34 41 46 54 65 62 59 58 54 54 57 58 59 58 57 62 75 79 78 76 68 61 50 39
94 62 51 48 46 46 45 43 48 52 50 61 38 52 29 36 36 34 30 31 31 32 34 43 52 63 60 54 55 57 60 60 61 61 60 58 69 81 77 80 78 68 51 45
90 70 47 50 46 42 46 48 48 41 44 48 38 55 31 31 32 35 34 34 32 30 31 33 38 46 53 57 56 59 62 61 63 64 63 59 57 65 72 78 74 73 56 50
79 57 60 53 51 46 53 41 47 53 52 58 44 43 32 38 30 35 39 33 36 35 40 49 55 53 55 56 58 61 62 61 64 66 67 63 58 55 63 64 66 65 59 53
85 60 59 52 51 44 40 55 79 67 69 66 63 41 32 27 46 43 42 53 56 61 62 61 62 71 67 62 62 63 63 62 65 68 67 65 64 58 55 57 62 60 58 53
95 88 62 62 52 55 47 45 74 59 68 66 59 49 31 35 58 62 60 65 66 64 66 62 62 65 66 66 65 65 65 64 65 67 67 67 68 65 58 54 54 58 58 55
72 77 60 58 56 45 45 66 46 69 67 73 73 49 41 51 56 62 67 66 66 64 67 61 62 64 63 61 61 62 63 63 64 65 66 67 70 70 66 60 55 52 50 49
57 77 61 52 50 48 44 54 61 78 56 43 63 56 61 66 64 62 64 63 62 61 65 66 61 46 40 37 40 48 61 63 64 65 66 65 66 70 70 70 65 61 56 54
55 58 63 50 57 51 50 54 66 63 67 61 48 42 55 58 64 66 67 62 60 61 62 50 43 38 38 38 38 40 44 52 58 62 64 66 66 70 72 71 68 68 67 64
56 64 75 55 61 59 60 44 49 54 42 72 54 47 52 56 63 64 66 55 47 56 48 47 43 41 40 40 42 43 45 46 49 52 58 64 65 65 66 67 66 68 68 68
52 61 71 51 45 52 58 59 54 57 63 63 60 35 54 63 64 61 58 47 42 44 45 48 45 45 43 42 41 41 43 46 49 49 48 49 49 50 51 52 55 57 60 62
55 65 47 59 43 53 57 59 58 53 75 52 49 33 51 60 61 53 43 40 39 44 45 48 49 50 46 44 44 46 48 47 46 46 45 46 47 49 49 49 51 54 59 61
55 63 61 54 53 58 51 53 67 59 47 43 31 48 41 62 64 53 44 40 42 47 48 48 52 54 49 46 47 50 50 50 47 45 44 44 44 47 48 47 48 48 49 50
54 69 51 62 45 44 46 55 64 66 55 51 49 53 45 46 56 45 42 43 42 46 47 48 50 50 50 51 54 53 48 47 47 48 50 50 51 52 53 52 50 48 49 51
57 65 67 55 55 44 40 42 62 68 64 56 58 45 53 57 57 48 44 44 42 47 50 53 55 54 54 54 54 50 50 50 50 50 51 50 49 47 47 48 48 49 51 53
58 58 71 69 35 46 30 35 39 60 60 62 50 48 52 46 49 42 42 45 49 52 54 56 57 55 55 53 53 52 51 50 47 43 40 37 38 38 38 41 43 44 48 52
60 60 71 58 45 31 24 40 46 47 27 57 55 51 47 57 46 44 52 50 51 57 57 56 56 56 54 54 53 48 41 35 33 33 32 29 30 33 34 34 36 36 42 42
63 60 46 66 28 16 14 30 35 29 28 29 61 57 59 50 57 50 57 59 60 58 60 57 56 55 53 49 43 37 32 29 31 33 33 32 31 32 32 32 33 35 44 51
73 74 64 68 56 40 28 35 38 19 15 41 56 56 62 48 49 51 62 62 58 59 57 57 55 52 47 44 36 32 31 29 32 31 29 27 27 31 33 36 34 40 46 54
64 71 76 73 56 31 40 39 32 27 43 45 47 54 55 54 60 64 66 68 63 60 58 55 48 45 41 35 32 30 27 28 27 26 28 30 30 32 37 46 48 49 53 62
50 42 48 53 44 30 43 34 35 45 47 45 48 49 52 56 57 68 69 68 62 55 51 49 44 36 32 30 30 29 25 26 29 31 31 33 36 41 46 54 57 64 68 74
57 57 52 54 40 50 44 46 45 47 42 44 45 48 51 50 66 67 68 66 57 51 48 44 38 34 29 27 28 28 28 32 35 38 40 45 51 53 52 55 60 72 80 87
47 60 57 61 50 50 46 52 45 47 48 49 50 50 49 61 67 66 64 59 53 48 45 39 36 35 31 28 26 27 27 34 38 45 47 51 55 55 56 57 66 75 73 83
60 52 53 46 39 40 38 47 52 56 54 56 56 60 60 60 64 56 58 52 48 48 42 35 34 34 29 26 23 25 28 36 44 51 52 54 58 60 66 72 77 71 76 87

GFSCGP_925_rhum_150.txt.gz
RH
86 97 100 95 89 45 36 36 35 34 33 33 39 36 40 40 39 40 40 40 42 42 40 51 58 61 61 60 61 60 60 61 63 67 64 69 67 78 84 77 65 57 51 45
96 98 82 90 83 58 37 37 35 38 34 30 37 39 37 39 38 36 36 36 36 37 40 48 58 62 62 61 63 63 60 62 61 63 68 71 74 80 83 84 70 60 52 45
92 93 82 73 90 56 37 34 40 46 35 30 33 39 39 35 33 33 32 30 30 34 36 42 54 59 62 62 64 63 63 62 60 62 61 64 66 74 82 80 77 68 60 46
98 90 91 83 95 54 43 31 35 38 37 45 31 53 36 31 34 31 31 30 29 33 32 37 46 55 62 62 66 65 61 62 62 61 65 72 67 64 71 79 81 79 70 58
98 98 96 97 67 37 38 34 35 34 32 36 32 40 25 29 31 30 28 26 26 27 29 31 40 48 57 64 68 65 67 64 66 61 68 72 71 68 70 73 77 79 77 68
83 84 81 59 46 41 36 34 37 33 33 56 38 30 26 28 26 25 24 23 23 23 24 26 28 38 50 67 70 70 70 70 68 65 66 67 74 70 66 65 65 66 69 70
95 74 52 51 40 35 33 37 78 73 84 54 43 30 18 19 27 25 25 23 25 25 24 33 43 38 43 60 69 72 71 72 74 69 68 68 75 72 70 68 63 62 62 65
97 89 56 53 46 38 34 36 54 73 56 49 44 32 21 22 45 44 35 32 33 35 39 48 54 56 60 64 69 70 70 70 73 75 74 76 77 76 73 72 70 67 64 62
85 80 52 52 49 38 36 42 36 41 43 34 35 30 29 42 52 46 46 44 45 48 51 55 58 60 64 68 71 73 72 75 74 72 74 74 75 76 74 75 75 73 72 70
46 64 54 49 45 41 38 36 43 48 52 30 36 34 26 43 49 49 53 48 52 55 56 56 55 53 50 53 58 63 68 68 70 72 72 71 72 75 77 77 75 74 72 71
42 46 56 47 51 41 42 45 45 40 42 24 22 18 30 35 44 51 47 50 53 54 53 44 38 39 41 45 46 49 53 56 60 68 71 74 75 79 78 76 73 73 72 72
45 45 56 50 56 52 46 37 30 31 41 41 31 22 33 41 38 41 46 49 49 49 41 34 34 36 38 40 42 46 51 53 59 60 61 63 61 60 62 60 60 63 64 65
44 46 61 50 44 48 46 46 37 35 38 38 33 22 41 46 42 44 45 47 47 42 33 31 33 32 34 38 40 46 51 53 54 53 51 51 52 52 52 54 56 59 60 60
48 41 41 45 40 40 43 48 40 35 36 28 26 22 33 45 44 44 43 40 39 36 32 30 30 32 36 40 44 46 49 52 51 50 50 50 52 55 57 56 53 50 51 56
50 52 54 46 54 48 43 42 46 40 28 27 24 23 21 36 38 40 40 36 38 34 32 33 32 32 37 42 46 50 51 51 50 51 53 56 58 53 53 51 48 46 46 48
46 58 49 57 44 42 44 41 43 43 42 35 33 29 20 26 33 40 38 34 34 32 32 32 34 37 39 42 46 52 50 53 54 54 54 50 46 41 40 41 34 34 41 43
48 54 57 50 43 39 38 33 40 41 40 28 32 18 28 34 40 40 36 32 29 29 30 34 35 38 40 45 50 47 54 56 54 51 41 36 36 37 32 28 36 37 38 40
45 46 52 52 32 47 26 29 32 36 38 36 36 33 29 30 36 36 32 29 27 26 32 34 37 42 47 50 54 57 57 52 44 41 35 31 27 35 39 41 40 39 41 44
45 40 47 43 34 25 21 26 34 31 21 29 36 32 35 39 36 35 35 28 25 28 30 35 40 44 50 52 58 54 47 43 36 37 37 38 37 40 42 42 43 47 51 51
46 36 35 38 34 26 15 26 31 30 17 22 32 33 38 40 34 23 36 33 32 36 41 45 50 52 50 54 51 43 38 34 33 38 35 29 29 34 41 45 48 53 57 59
54 51 50 40 37 27 19 30 32 20 17 28 38 44 43 41 33 42 36 40 41 45 51 55 54 50 48 50 46 36 36 30 31 26 26 26 27 32 38 46 54 56 54 54
47 48 47 45 44 43 28 36 23 22 31 37 42 48 45 41 48 47 45 50 51 56 59 54 53 51 52 45 39 33 30 25 26 29 28 30 35 42 43 56 54 52 50 49
39 33 27 35 28 26 31 31 30 31 32 37 41 46 40 46 49 51 53 52 53 55 55 53 47 45 41 40 31 28 27 32 32 33 37 38 42 46 45 53 48 48 48 49
44 39 32 34 29 33 27 30 34 35 35 38 39 43 40 41 46 50 52 53 52 52 49 46 38 31 31 33 27 30 29 29 30 38 36 38 43 46 48 49 55 53 50 44
37 44 37 35 31 33 34 36 34 36 39 40 42 42 40 42 48 49 52 50 49 48 47 38 32 31 30 35 32 32 30 32 39 39 40 41 46 48 50 52 52 54 54 53
42 38 37 29 30 26 32 38 42 41 43 41 42 45 46 45 49 49 49 47 46 43 43 38 37 36 37 38 35 29 29 33 43 44 45 46 51 51 55 57 56 54 56 58

GFSCGP_925_rhum_153.txt.gz
RH
82 97 97 75 70 66 90 86 45 26 26 30 32 32 36 38 36 36 36 41 42 44 40 41 47 51 48 47 50 52 53 55 59 61 58 59 60 67 71 70 64 58 54 53
94 96 67 77 90 97 97 89 36 24 29 25 24 35 34 36 36 33 34 37 39 42 41 45 51 54 54 52 54 55 54 56 55 57 59 61 64 68 72 79 70 62 56 50
92 92 75 90 98 100 87 51 33 43 34 23 23 38 41 36 33 31 31 33 35 38 40 44 51 53 56 56 59 58 57 59 61 62 69 70 72 74 75 78 76 70 63 51
97 89 89 84 94 95 56 31 28 34 40 39 27 49 42 38 38 35 33 32 32 34 33 36 45 51 57 57 62 60 61 63 66 68 69 67 62 59 63 71 74 76 69 62
98 93 93 86 78 69 60 30 40 30 31 24 33 46 36 34 39 34 33 30 28 29 30 34 40 45 52 58 64 63 66 69 67 69 69 69 67 63 64 67 71 76 76 74
89 85 91 76 74 52 35 35 38 31 28 53 29 32 34 36 32 31 28 26 26 26 27 29 34 43 50 59 68 68 65 70 72 72 72 71 70 68 65 64 64 63 64 69
96 91 62 58 50 36 35 45 77 74 90 57 30 32 21 24 23 25 26 24 24 23 24 26 28 35 44 61 69 70 67 67 70 73 71 71 72 72 70 67 63 59 58 60
94 89 64 46 43 39 35 48 68 77 57 52 36 39 22 23 27 29 21 22 22 24 22 26 32 33 37 51 64 66 64 60 64 68 71 74 75 75 72 69 68 66 63 61
67 78 45 43 40 36 36 51 39 47 38 40 38 26 29 33 42 33 31 28 30 27 32 44 46 49 51 54 59 62 62 64 64 65 67 67 70 72 71 70 71 70 69 69
46 69 47 42 39 35 36 29 56 56 60 42 37 29 35 37 42 37 40 36 36 38 44 48 50 54 57 61 64 65 65 63 64 64 64 64 63 64 67 69 68 67 66 67
38 41 50 42 46 37 34 35 38 36 36 33 32 29 26 30 32 40 38 38 42 46 48 48 45 42 42 43 45 48 50 54 58 61 60 64 64 68 69 67 63 62 63 62
38 41 54 48 47 45 43 34 30 32 29 28 24 28 29 30 30 35 36 41 43 45 45 38 34 33 34 35 38 41 44 46 50 52 54 57 59 59 56 50 51 52 53 54
45 42 58 49 39 42 43 37 34 30 31 31 33 28 35 36 32 32 38 40 43 43 35 30 29 29 31 32 34 39 43 46 48 47 45 46 46 46 45 47 49 50 52 52
49 38 42 55 45 39 42 40 34 33 40 26 22 20 37 39 35 37 37 40 40 36 31 28 26 26 29 32 36 38 41 43 45 46 44 44 46 49 50 51 52 51 50 49
45 54 50 38 44 44 44 36 37 36 29 29 24 20 21 34 33 37 36 36 36 32 29 28 26 27 31 36 38 41 43 44 45 44 45 50 51 51 49 46 44 41 41 39
44 60 46 56 41 40 46 33 33 36 33 32 26 24 16 25 28 34 34 34 34 31 29 27 26 28 31 36 37 42 42 45 45 46 48 49 43 41 41 38 36 35 34 33
47 52 53 47 40 39 42 30 30 31 33 26 27 21 20 28 31 32 32 32 33 30 28 27 29 31 32 36 40 41 45 49 47 45 38 36 35 34 36 35 33 33 33 33
44 44 57 56 34 49 25 26 29 27 26 27 23 26 24 26 27 30 29 30 28 27 27 28 29 32 35 40 43 49 51 46 40 36 34 36 37 36 36 36 37 35 37 40
39 37 42 47 34 25 21 24 29 30 22 24 29 25 26 31 30 31 30 26 24 23 24 27 31 35 41 44 49 49 48 41 35 33 34 37 37 36 38 39 40 41 43 46
42 37 38 35 37 30 17 24 25 26 20 20 24 24 25 32 31 22 31 28 24 24 26 32 36 40 42 45 48 43 37 31 29 35 38 32 36 40 41 40 42 46 49 49
53 48 48 41 38 27 23 26 27 23 23 27 30 35 34 36 32 35 31 29 28 32 37 42 43 41 42 46 41 34 32 27 35 28 30 34 38 39 40 42 45 48 49 50
41 47 47 40 43 49 24 31 23 24 30 31 37 42 38 35 40 38 38 38 40 44 48 44 44 46 47 45 34 31 27 33 32 34 36 36 34 35 39 43 42 42 40 39
35 31 26 32 29 20 23 27 25 26 28 33 36 41 37 41 44 44 46 44 46 48 46 45 46 45 38 35 28 22 25 30 31 32 31 30 31 34 36 37 39 41 46 45
30 30 29 28 20 24 22 22 27 28 30 33 34 38 35 39 43 45 44 46 46 47 46 43 40 33 30 29 30 28 31 32 32 31 30 31 34 34 36 36 41 46 47 45
33 36 29 27 22 24 26 26 23 26 30 34 36 37 35 38 41 43 46 45 45 45 43 36 28 25 26 30 30 31 32 33 33 32 32 33 36 38 38 39 43 45 49 50
35 32 34 26 25 24 31 32 34 34 37 35 37 40 37 37 41 40 43 43 43 40 36 32 30 29 33 35 35 34 33 36 36 36 38 40 43 44 46 48 48 48 49 50

GFSCGP_925_rhum_156.txt.gz
RH
82 90 89 83 76 71 68 71 72 62 51 74 64 38 39 44 45 47 48 54 55 54 48 41 43 42 41 43 49 53 54 55 58 63 64 65 69 70 72 69 59 54 50 46
92 94 67 63 65 74 77 87 88 66 58 70 51 39 35 44 46 44 47 54 55 53 52 51 51 47 44 47 50 52 53 54 58 58 56 60 63 66 72 75 64 58 53 46
98 80 88 76 91 99 96 96 83 78 65 64 36 41 40 44 42 40 42 47 50 53 53 56 59 55 51 52 52 54 54 55 56 57 57 59 60 67 70 72 70 65 59 52
99 89 93 96 100 97 100 79 87 95 60 68 32 65 66 50 48 42 42 46 50 52 50 56 59 60 57 56 56 57 56 58 59 57 58 64 67 64 65 73 74 73 67 62
97 96 94 99 92 92 94 57 70 72 48 47 37 63 54 49 52 46 46 46 48 47 49 55 60 59 59 59 60 60 60 61 61 57 60 64 65 62 64 67 70 73 76 72
88 83 90 86 63 74 71 54 76 70 57 71 43 43 61 55 49 46 43 42 42 44 46 48 50 53 59 60 62 63 63 64 63 60 60 66 67 65 64 64 64 63 64 67
91 94 68 75 73 66 69 66 98 99 88 85 44 45 42 42 39 37 40 40 40 41 44 49 56 54 58 65 67 66 66 68 67 63 65 66 68 70 69 67 66 62 59 59
98 97 73 55 61 54 51 57 87 75 86 88 51 59 36 46 38 32 33 34 37 41 39 45 51 52 61 68 70 70 67 68 67 69 69 70 69 69 70 70 68 66 65 62
99 80 48 42 40 41 43 78 49 69 71 86 67 39 33 45 42 35 34 36 42 40 42 46 45 40 50 66 69 69 67 64 65 66 68 70 71 72 70 70 69 68 67 67
51 82 47 40 40 38 41 43 70 84 96 76 74 45 76 54 50 40 48 47 45 48 61 65 65 55 52 57 63 64 63 63 63 65 66 67 67 67 67 68 68 68 68 67
46 54 59 45 53 58 46 50 49 56 63 92 63 52 34 48 49 51 49 48 52 63 66 69 68 62 63 64 65 65 64 63 64 64 64 65 64 65 68 69 67 64 63 61
40 52 69 55 46 44 47 40 49 68 58 71 44 50 38 37 47 48 47 51 59 63 66 59 50 45 46 46 47 49 50 52 54 56 59 64 66 66 62 56 52 52 52 52
55 54 80 57 51 45 47 40 38 38 46 56 54 45 40 38 46 44 54 57 60 61 52 46 43 41 40 40 42 45 47 50 49 49 50 50 49 48 46 47 49 50 50 48
58 55 51 80 82 54 46 43 37 39 73 43 32 38 49 41 47 51 54 58 61 50 42 41 41 40 35 36 40 42 44 45 45 46 44 45 46 48 50 51 49 45 39 34
52 68 58 50 46 46 48 41 40 40 44 41 36 33 35 46 46 50 53 55 51 44 40 39 39 42 37 38 38 41 43 45 44 44 45 49 51 50 46 39 33 27 25 26
51 70 55 61 44 44 47 41 36 38 40 38 33 30 35 37 43 47 52 51 46 40 38 36 37 38 40 40 41 43 44 45 44 48 51 49 43 37 32 25 24 25 25 26
52 61 73 69 40 45 53 41 38 37 36 33 32 30 29 39 42 46 48 46 44 38 37 37 38 37 37 38 41 43 45 46 46 46 40 36 32 30 27 26 26 26 26 27
51 54 69 83 43 67 34 30 33 35 32 35 32 29 34 35 39 37 40 42 43 37 36 38 38 35 36 40 43 45 47 47 44 37 33 31 28 28 27 25 27 27 28 31
46 50 61 70 56 39 28 24 31 34 29 29 32 28 34 35 32 32 34 36 38 37 35 34 33 36 41 44 47 49 48 40 36 32 33 31 26 26 27 27 28 28 33 32
46 47 57 52 49 43 22 24 26 26 29 23 27 27 26 38 44 44 36 33 34 32 31 35 36 41 45 48 49 48 41 34 33 33 30 26 27 27 26 25 28 32 36 40
66 60 66 65 59 46 27 28 28 26 31 32 34 41 40 44 48 42 39 40 39 41 41 40 42 44 47 48 44 38 32 31 32 24 25 26 26 26 28 27 30 35 39 41
59 66 67 58 54 62 30 30 27 33 33 34 43 45 43 51 46 46 47 53 55 55 46 43 48 48 45 40 33 32 31 29 25 27 27 28 29 29 30 32 34 36 40 42
43 40 41 45 51 25 31 30 28 32 38 37 45 42 50 53 54 56 58 60 60 52 48 49 49 47 39 30 27 26 29 27 27 26 28 28 28 28 30 33 34 37 39 44
32 33 41 32 24 30 27 26 30 29 38 38 41 42 46 55 56 57 60 61 59 51 49 46 40 35 32 27 26 27 26 26 24 26 27 27 28 31 33 35 37 39 42 46
38 39 37 35 31 26 28 27 32 34 40 41 40 41 47 53 56 58 60 59 54 48 41 36 32 29 29 28 28 26 25 24 24 27 27 30 33 36 37 40 44 46 46 48
45 42 44 40 32 35 39 38 34 38 37 42 45 44 44 50 54 56 58 52 47 40 31 28 28 29 30 30 29 26 23 20 21 26 32 35 40 41 43 47 49 45 50 54

GFSCGP_925_rhum_159.txt.gz
RH
85 97 97 85 92 81 80 86 88 65 50 61 71 68 54 45 45 57 67 72 68 61 57 49 48 50 51 53 51 51 56 56 56 66 65 70 69 71 69 64 55 50 47 46
93 96 70 67 77 84 81 88 87 69 57 57 74 75 58 49 46 58 61 69 69 66 56 55 52 48 48 51 51 54 54 55 54 58 62 64 70 70 72 72 60 54 50 46
94 86 76 78 92 95 86 85 80 78 63 60 69 83 72 52 41 59 56 60 60 60 57 61 58 54 47 51 53 53 52 52 59 60 60 64 65 67 69 67 63 60 57 53
99 91 95 97 100 95 98 72 77 74 97 92 71 93 63 53 54 64 60 63 64 61 59 63 58 58 51 50 52 52 52 53 56 55 54 53 56 67 68 72 70 69 67 61
90 97 97 100 96 96 95 82 99 97 93 95 96 90 42 44 63 61 60 63 62 59 63 67 64 59 54 51 53 54 55 54 54 54 53 61 66 63 65 66 69 70 71 69
91 86 90 93 84 82 82 91 86 97 89 98 78 73 58 71 54 62 58 59 60 59 61 64 65 63 60 56 56 58 58 58 57 57 60 62 63 63 61 59 61 63 64 66
79 94 79 77 94 80 95 98 98 98 98 91 61 51 52 48 49 53 57 58 58 56 61 67 71 71 70 65 62 62 60 62 61 60 61 65 65 66 63 62 66 65 62 62
98 93 81 78 75 68 86 68 96 96 85 79 56 68 35 48 45 41 46 52 54 55 55 62 66 69 72 72 66 65 64 64 66 63 64 65 66 65 64 64 67 66 65 64
96 91 57 60 48 44 50 86 59 68 81 85 74 45 39 60 48 48 48 50 53 52 54 62 67 71 78 76 69 66 67 66 66 66 68 70 68 64 64 65 68 67 66 66
59 83 55 46 46 46 44 52 83 90 90 77 89 53 68 65 57 50 55 51 51 54 57 59 62 68 76 70 69 69 67 66 66 69 69 68 66 66 66 69 70 69 69 69
50 62 69 50 54 57 51 73 68 81 98 96 83 61 38 49 67 49 49 46 50 53 61 68 72 60 67 69 70 70 68 67 67 67 67 67 67 68 69 70 70 67 64 60
50 53 79 61 48 46 50 49 57 80 86 98 98 65 49 47 51 54 53 61 70 70 78 79 78 72 70 68 68 67 67 67 66 65 64 65 67 69 70 65 56 52 48 49
59 66 86 75 55 48 54 44 41 45 81 86 88 52 45 58 56 56 63 72 74 75 71 67 65 65 65 65 64 59 58 56 56 59 62 64 60 53 50 49 47 47 46 42
58 68 67 84 75 65 60 49 40 53 84 65 55 44 50 51 60 68 73 80 74 62 56 55 57 55 51 50 50 50 51 49 50 50 49 48 47 47 48 48 46 38 28 24
58 74 61 60 58 54 54 52 44 43 51 54 40 42 42 49 64 68 73 70 58 53 51 50 53 54 48 48 47 48 47 46 46 46 46 48 50 50 46 37 26 22 22 22
55 68 63 69 50 51 52 48 47 42 43 43 36 31 42 46 60 68 69 58 52 48 45 45 46 49 48 46 45 45 46 45 45 47 50 50 46 38 28 22 22 23 21 21
56 67 78 80 56 46 54 48 45 40 39 35 34 31 38 48 54 62 65 54 48 43 42 43 44 46 44 44 45 45 44 45 49 51 46 39 32 27 25 24 23 22 22 23
61 60 77 84 56 67 37 30 37 36 34 36 32 30 36 43 43 51 54 55 46 41 42 43 44 43 42 43 44 45 46 49 46 40 34 30 28 26 25 23 22 22 23 26
56 57 67 68 69 48 32 24 32 37 34 29 35 32 36 34 34 35 49 47 42 41 41 41 38 40 44 44 46 47 49 45 38 34 31 27 24 24 23 22 23 23 24 26
50 53 63 67 55 52 26 26 27 29 32 27 29 31 39 38 43 41 44 43 44 38 38 42 42 45 45 49 48 48 41 37 34 33 29 25 24 23 23 24 23 24 27 30
73 68 72 71 72 55 31 28 31 26 30 35 39 44 40 49 47 46 49 55 47 45 47 45 45 47 49 50 49 43 36 34 33 27 23 24 25 26 25 25 26 30 32 35
69 77 78 72 69 66 30 28 26 30 35 39 46 46 54 52 52 59 60 59 54 56 54 48 52 52 50 48 40 34 33 32 23 24 25 26 26 26 25 27 28 30 34 37
45 54 56 60 57 38 31 30 30 37 39 39 49 53 55 57 61 63 68 65 62 60 58 52 48 45 39 36 31 30 28 26 26 25 25 25 25 25 29 30 32 33 35 40
34 39 42 33 24 33 26 30 30 32 40 42 48 52 55 63 63 69 70 68 66 59 55 49 44 36 30 28 26 25 27 26 24 23 22 24 26 32 30 30 35 39 40 47
38 38 39 41 36 32 32 30 36 42 44 44 45 47 58 64 66 68 69 67 60 56 49 41 36 31 29 28 27 26 25 22 20 22 26 28 31 31 32 33 37 42 40 51
48 41 42 41 35 36 39 36 37 45 46 47 49 54 56 61 65 66 68 57 50 46 40 35 31 29 30 28 28 26 22 19 22 26 28 30 32 34 36 41 40 33 42 48